San Francisco, CA

11:20 PM PST on February 12, 2016 (GMT -0800)
San Francisco International | | Change Station
CLOSE
Current Station
Airport
Location: San Francisco,
Elevation: 16 ft
Nearby Weather Stations

Elev 16 ft 37.62 °N, 122.37 °W | Updated 15 minutes ago

Partly Cloudy
Partly Cloudy
55 °F
Feels Like 55 °F
N
16
Wind Variable Wind from WNW

Today
High -- | Low -- °F
--% Chance of Precip.
Yesterday
High -- | Low -- °F
Precip. -- in
Pressure 30.21 in
Visibility 8.0 miles
Clouds Mostly Cloudy 300 ft
Mostly Cloudy 20000 ft
Dew Point 53 °F
Humidity 93%
Rainfall 0.00 in
Snow Depth Not available.
7:02 AM 5:45 PM
Waxing Crescent, 28% visible
SPECI KSFO 130705Z 29014KT 8SM BKN003 BKN200 13/12 A3021 RMK AO2 T01280117 $
Pressure 30.21 in
Visibility 8.0 miles
Clouds Mostly Cloudy 300 ft
Mostly Cloudy 20000 ft
Dew Point 53 °F
Humidity 93%
Rainfall 0.00 in
Snow Depth Not available.
7:02 AM 5:45 PM
Waxing Crescent, 28% visible
SPECI KSFO 130705Z 29014KT 8SM BKN003 BKN200 13/12 A3021 RMK AO2 T01280117 $

10-Day Weather Forecast

Almanac

Astronomy

Feb. 12, 2016 Rise Set
Actual Time
Civil Twilight
Nautical Twilight
Astronomical Twilight
Moon
Length of Visible Light
Length of Day
Tomorrow will be .
, % of the Moon is Illuminated

Today's Extremes

State Highs State Lows

Community

WunderPhotos

Upload Photos

1,892,526 photos uploaded!

WunderBlog® & News

Nearby

Air Quality

  Air Quality AQ Index Pollutant
Not available.

Snow Depth

Station Depth Elevation

Earthquake Activity

City Distance Mag. Time & Date
Minimum magnitude displayed is 2.5.

Coastal Water Temperatures

Place Temperature

Stations

Nearby Weather Stations

Station Location Temp. Windchill Dew Point Humidity Wind Precip. Elev Updated Type
                   

Watches & Warnings

There are currently no watches in effect.